[[{"header":{"parameterUnit":"m.s-1","parameterCategory":1,"la1":30.2991,"la2":30.254,"lo1":-89.0895,"lo2":-89.0444,"dy":0.0017,"dx":0.0017,"nx":28,"ny":28,"refTime":"2025-02-08T03:00:00:Z","depth":0,"parameterNumber":2,"parameterNumberName":"U-component_of_WINDS"},"data":[0,0,0,0,0,0,0,0,0,0,0,0,0,0,0,0,0,0,0,0,0,0,0,0,0,0,0,0,0,0,0,0,0,0,0,0,0,0,0,0,0,0,0,0,0,0,0,0,0,0,0,0,0,0,0,0,0,0,-0.6791,-0.679,0,-0.6738,-0.6737,-0.6737,-0.6701,-0.6701,-0.6701,-0.6701,-0.6645,-0.6644,-0.6642,0,0,0,0,0,0,0,0,0,0,0,0,0,-0.686,-0.6859,-0.6791,-0.679,-0.6789,-0.6738,-0.6737,-0.6737,-0.6701,-0.6701,-0.6701,-0.6701,-0.6645,-0.6644,-0.6642,0,0,0,0,0,0,0,0,0,0,0,0,0,-0.6821,-0.6858,-0.6791,-0.6766,-0.6763,-0.6738,-0.6737,-0.6736,-0.6702,-0.6701,-0.6701,-0.67,-0.6646,-0.6644,-0.6642,-0.6638,0,0,-0.6636,-0.6635,0,0,0,0,0,0,0,0,-0.6823,-0.6818,-0.677,-0.6767,-0.6764,-0.6726,-0.6741,-0.6703,-0.6702,-0.6725,-0.6701,-0.67,-0.6672,-0.6668,-0.6659,-0.6635,-0.6633,-0.6636,-0.6635,-0.6634,-0.6634,0,0,0,0,0,0,0,-0.6826,-0.682,-0.677,-0.6769,-0.6766,-0.6757,-0.6751,-0.6734,-0.6701,-0.6723,-0.672,-0.6714,-0.667,-0.6661,-0.6657,-0.6632,-0.6636,-0.6635,-0.6633,-0.6633,-0.6601,-0.6601,0,0,0,0,0,0,-0.6833,-0.6823,-0.6771,-0.6768,-0.6793,-0.6756,-0.6749,-0.6739,-0.6701,-0.6695,-0.6715,-0.6713,-0.6664,-0.6659,-0.6655,-0.6647,-0.6634,-0.6632,-0.6631,-0.6601,-0.6601,-0.6602,0,0,0,0,0,0,-0.6834,-0.6828,-0.6774,-0.6795,-0.6787,-0.6755,-0.6743,-0.6738,-0.6728,-0.6695,-0.6689,-0.6711,-0.6664,-0.6658,-0.6642,-0.6644,-0.6632,-0.663,-0.6601,-0.6601,-0.6601,-0.663,0,0,0,0,0,0,-0.6836,-0.6829,-0.6827,-0.6795,-0.6786,-0.6762,-0.6744,-0.6737,-0.6725,-0.6722,-0.669,-0.6684,-0.6663,-0.6645,-0.664,-0.6641,-0.6628,-0.66,-0.6601,-0.6601,-0.6629,-0.6632,-0.6634,0,0,0,0,0,-0.6839,-0.6837,-0.6827,-0.6821,-0.6783,-0.6762,-0.6757,-0.6733,-0.6725,-0.6723,-0.6702,-0.6685,-0.6645,-0.6644,-0.6638,-0.6639,-0.66,-0.6601,-0.6601,-0.6628,-0.6631,-0.6634,0,0,0,0,0,0,-0.687,-0.6833,-0.6821,-0.6809,-0.6789,-0.6756,-0.6752,-0.6737,-0.6719,-0.6717,-0.6687,-0.668,-0.6668,-0.6652,-0.6651,-0.6632,-0.6621,-0.662,-0.6643,-0.6646,-0.6648,-0.6652,-0.6627,0,0,0,0,0,-0.6876,-0.6862,-0.683,-0.6822,-0.6813,-0.6785,-0.6775,-0.6758,-0.6736,-0.6727,-0.6705,-0.6684,-0.6666,-0.6655,-0.6638,-0.6627,-0.6619,-0.6625,-0.6627,-0.663,-0.6629,-0.6622,-0.6624,-0.6604,-0.6604,-0.6604,0,0,-0.6887,-0.6865,-0.6858,-0.6828,-0.6811,-0.6797,-0.6778,-0.6764,-0.6753,-0.6725,-0.6709,-0.6692,-0.6666,-0.6653,-0.6646,-0.6639,-0.6633,-0.663,-0.6632,-0.663,-0.6623,-0.6625,-0.6626,-0.6604,-0.6604,-0.6604,0,0,-0.6899,-0.6882,-0.6873,-0.6857,-0.6831,-0.6812,-0.681,-0.678,-0.6767,-0.6751,-0.6729,-0.6716,-0.6687,-0.667,-0.6657,-0.6664,-0.6648,-0.6659,-0.6672,-0.6665,-0.6667,-0.6668,-0.6669,-0.6671,-0.6659,-0.6659,-0.6659,0,-0.6916,-0.6895,-0.6871,-0.6858,-0.6845,-0.682,-0.6811,-0.6796,-0.6765,-0.6757,-0.675,-0.6713,-0.6694,-0.6676,-0.6678,-0.6669,-0.6666,-0.6662,-0.6669,-0.6669,-0.667,-0.6671,-0.6672,-0.6661,-0.6661,-0.666,-0.666,0,-0.6916,-0.6902,-0.6898,-0.687,-0.6857,-0.6846,-0.682,-0.681,-0.6795,-0.6777,-0.676,-0.6737,-0.6714,-0.6709,-0.6694,-0.6689,-0.6685,-0.6674,-0.6661,-0.6674,-0.6675,-0.6675,-0.6663,-0.6662,-0.6662,-0.6662,0,0,-0.6946,-0.6905,-0.6904,-0.6891,-0.6861,-0.6849,-0.6837,-0.6815,-0.6807,-0.6787,-0.6776,-0.6752,-0.6741,-0.6727,-0.671,-0.6704,-0.6711,-0.6694,-0.6692,-0.6697,-0.6703,-0.6711,-0.6712,-0.6701,-0.6701,-0.6701,-0.6705,0,-0.6953,-0.6931,-0.6909,-0.6894,-0.688,-0.6856,-0.6846,-0.6826,-0.681,-0.6795,-0.6776,-0.676,-0.6747,-0.6739,-0.6732,-0.6711,-0.6711,-0.6711,-0.6689,-0.6688,-0.6695,-0.6712,-0.672,-0.6726,-0.6705,-0.6705,-0.6705,0,-0.6958,-0.694,-0.6924,-0.6895,-0.6889,-0.688,-0.6858,-0.6845,-0.6822,-0.681,-0.6795,-0.6777,-0.6763,-0.6753,-0.6733,-0.6733,-0.6723,-0.6712,-0.6711,-0.6707,-0.6697,-0.6708,-0.6727,-0.6727,-0.6706,-0.6706,-0.6705,0,-0.698,-0.6952,-0.6938,-0.6928,-0.6894,-0.6888,-0.6874,-0.6851,-0.6839,-0.682,-0.6812,-0.6792,-0.678,-0.6765,-0.6742,-0.6737,-0.6724,-0.6713,-0.6713,-0.6714,-0.671,-0.671,-0.6727,-0.6706,-0.6706,-0.6706,-0.6706,0,-0.699,-0.6981,-0.6948,-0.6939,-0.6928,-0.6903,-0.6893,-0.6877,-0.6857,-0.6844,-0.6823,-0.6812,-0.6783,-0.6768,-0.675,-0.6736,-0.6731,-0.6721,-0.6716,-0.6722,-0.6723,-0.6714,-0.6712,-0.6706,-0.6706,-0.6706,-0.6706,0,-0.7012,-0.6989,-0.6973,-0.6943,-0.6935,-0.6928,-0.6902,-0.6893,-0.6876,-0.686,-0.6855,-0.6827,-0.6809,-0.6785,-0.6759,-0.6747,-0.6735,-0.6728,-0.6742,-0.6739,-0.6741,-0.6741,-0.6751,-0.675,-0.6731,-0.6731,-0.6732,0,-0.7019,-0.7011,-0.6981,-0.6971,-0.6958,-0.6943,-0.6931,-0.6906,-0.6895,-0.6868,-0.6862,-0.6843,-0.6825,-0.6797,-0.6774,-0.6754,-0.6746,-0.6751,-0.6743,-0.6749,-0.6745,-0.6745,-0.6744,-0.6753,-0.6753,-0.6753,-0.6753,0,-0.7034,-0.7023,-0.7007,-0.6986,-0.6973,-0.6956,-0.6938,-0.6931,-0.6903,-0.6891,-0.6872,-0.6859,-0.6833,-0.6813,-0.679,-0.6775,-0.6759,-0.6757,-0.6755,-0.6761,-0.6769,-0.6764,-0.6747,-0.6756,-0.6756,-0.6755,-0.6755,-0.6755,-0.7047,-0.7039,-0.7017,-0.6999,-0.6983,-0.6967,-0.6956,-0.6938,-0.6922,-0.6899,-0.6886,-0.6867,-0.6845,-0.6813,-0.6799,-0.6784,-0.6777,-0.6776,-0.6775,-0.6775,-0.6777,-0.6773,-0.6779,-0.6779,-0.6779,-0.6779,-0.6779,0,-0.706,-0.7044,-0.7029,-0.7004,-0.699,-0.6978,-0.6957,-0.6946,-0.693,-0.6911,-0.6895,-0.6873,-0.6854,-0.6831,-0.681,-0.6802,-0.6795,-0.6798,-0.6797,-0.6794,-0.6784,-0.6786,-0.6804,-0.6804,-0.6804,-0.6804,-0.6804,-0.6804,-0.7065,-0.705,-0.7037,-0.7014,-0.6999,-0.6981,-0.697,-0.6955,-0.6939,-0.6916,-0.69,-0.6885,-0.6864,-0.6842,-0.6824,-0.6817,-0.681,-0.6815,-0.6806,-0.6797,-0.6795,-0.6793,-0.6795,-0.6814,-0.6814,-0.6818,-0.6818,-0.6818]},{"header":{"parameterUnit":"m.s-1","parameterCategory":1,"la1":30.2991,"la2":30.254,"lo1":-89.0895,"lo2":-89.0444,"dy":0.0017,"dx":0.0017,"nx":28,"ny":28,"refTime":"2025-02-08T03:00:00:Z","depth":0,"parameterNumber":3,"parameterNumberName":"V-component_of_WINDS"},"data":[0,0,0,0,0,0,0,0,0,0,0,0,0,0,0,0,0,0,0,0,0,0,0,0,0,0,0,0,0,0,0,0,0,0,0,0,0,0,0,0,0,0,0,0,0,0,0,0,0,0,0,0,0,0,0,0,0,0,3.1866,3.1866,0,3.1875,3.1875,3.1876,3.1906,3.1907,3.1907,3.1908,3.1914,3.1913,3.1913,0,0,0,0,0,0,0,0,0,0,0,0,0,3.1872,3.1872,3.1866,3.1866,3.1866,3.1875,3.1875,3.1876,3.1906,3.1907,3.1907,3.1908,3.1914,3.1913,3.1913,0,0,0,0,0,0,0,0,0,0,0,0,0,3.1874,3.1871,3.1866,3.1883,3.1884,3.1875,3.1875,3.1876,3.1906,3.1907,3.1908,3.1909,3.1914,3.1914,3.1913,3.1888,0,0,3.1911,3.191,0,0,0,0,0,0,0,0,3.1874,3.1874,3.188,3.1881,3.1883,3.1891,3.188,3.188,3.1905,3.1897,3.1908,3.1909,3.1905,3.1905,3.1905,3.1888,3.1888,3.1911,3.191,3.191,3.191,0,0,0,0,0,0,0,3.1874,3.1873,3.187,3.188,3.1882,3.1889,3.189,3.188,3.1895,3.1898,3.19,3.1901,3.1906,3.1905,3.1905,3.1888,3.1911,3.191,3.1909,3.1909,3.1853,3.1852,0,0,0,0,0,0,3.1871,3.1873,3.1869,3.187,3.1881,3.1888,3.1889,3.1887,3.1895,3.1898,3.19,3.1903,3.1906,3.1906,3.1905,3.1878,3.191,3.1909,3.1909,3.1854,3.1853,3.1852,0,0,0,0,0,0,3.1871,3.1871,3.1869,3.1872,3.1872,3.1887,3.1884,3.1887,3.1886,3.1897,3.19,3.1897,3.1907,3.1906,3.1893,3.1878,3.1909,3.1908,3.1856,3.1854,3.1853,3.1822,0,0,0,0,0,0,3.1872,3.1871,3.1862,3.1872,3.1872,3.1857,3.1883,3.1886,3.1885,3.1888,3.1894,3.1896,3.1907,3.1893,3.1892,3.1878,3.1908,3.1857,3.1855,3.1853,3.1824,3.182,3.1816,0,0,0,0,0,3.1872,3.1852,3.1861,3.1861,3.1862,3.1856,3.1856,3.187,3.1884,3.1875,3.1882,3.1896,3.188,3.1892,3.189,3.1876,3.1858,3.1856,3.1853,3.1826,3.1821,3.1816,0,0,0,0,0,0,3.1838,3.1853,3.1864,3.1847,3.185,3.1861,3.185,3.1863,3.1862,3.1864,3.1881,3.1882,3.1866,3.1869,3.1882,3.1853,3.1871,3.1869,3.1852,3.1846,3.1842,3.1842,3.1907,0,0,0,0,0,3.1829,3.1824,3.1837,3.1821,3.1822,3.1836,3.1834,3.1845,3.1848,3.1849,3.1855,3.1857,3.1853,3.1849,3.1846,3.1825,3.1827,3.1814,3.181,3.1806,3.1804,3.1794,3.1789,3.1844,3.1844,3.1844,0,0,3.1809,3.1817,3.1813,3.1814,3.1818,3.1812,3.1837,3.1829,3.1825,3.1847,3.1836,3.184,3.1844,3.1827,3.1819,3.1829,3.1789,3.1803,3.18,3.18,3.1791,3.1786,3.1781,3.1843,3.1843,3.1843,0,0,3.1772,3.1777,3.1765,3.1768,3.1774,3.1784,3.1781,3.179,3.1795,3.1783,3.1801,3.1795,3.1787,3.1789,3.1789,3.1753,3.1767,3.1751,3.1728,3.1719,3.1715,3.1711,3.1699,3.1695,3.1749,3.1749,3.1749,0,3.1746,3.1739,3.1756,3.1748,3.1748,3.177,3.1758,3.176,3.1764,3.1764,3.1774,3.1766,3.1769,3.1754,3.1745,3.1744,3.1741,3.1751,3.1714,3.1711,3.1707,3.1696,3.1692,3.1747,3.1747,3.1747,3.1747,0,3.1709,3.1704,3.1693,3.1698,3.1697,3.1687,3.1701,3.1698,3.1709,3.1717,3.1706,3.1711,3.171,3.1706,3.1716,3.1693,3.1699,3.1711,3.1731,3.17,3.169,3.1686,3.1744,3.1745,3.1746,3.1746,0,0,3.165,3.1666,3.1662,3.1665,3.1674,3.167,3.166,3.166,3.1658,3.1659,3.1652,3.1645,3.1658,3.1658,3.1668,3.166,3.1633,3.1674,3.1674,3.1667,3.1608,3.16,3.1594,3.1641,3.164,3.164,3.1609,0,3.1615,3.1602,3.1617,3.16,3.1596,3.1617,3.1609,3.1613,3.1621,3.1618,3.1625,3.1621,3.1637,3.1637,3.163,3.1638,3.1621,3.164,3.1635,3.1635,3.1635,3.1589,3.1579,3.155,3.1605,3.1604,3.1603,0,3.1573,3.1575,3.1558,3.157,3.1568,3.1561,3.1563,3.156,3.1565,3.1571,3.1572,3.1585,3.1576,3.1594,3.1583,3.1595,3.1594,3.1597,3.1597,3.1597,3.1618,3.159,3.154,3.1536,3.1597,3.1598,3.1598,0,3.1533,3.1531,3.1522,3.1524,3.1536,3.1531,3.1535,3.1542,3.1541,3.1543,3.1543,3.1542,3.1542,3.1541,3.1554,3.1566,3.1541,3.156,3.1546,3.1546,3.1541,3.1541,3.1491,3.1538,3.1538,3.1538,3.1538,0,3.1493,3.1482,3.1504,3.1498,3.1487,3.1504,3.1492,3.1499,3.1505,3.15,3.1517,3.1512,3.1529,3.1526,3.1535,3.1525,3.1524,3.1529,3.1532,3.1528,3.1528,3.1528,3.1531,3.1537,3.1537,3.1537,3.1537,0,3.1447,3.1461,3.1453,3.1466,3.1469,3.146,3.1471,3.1466,3.1475,3.1469,3.1468,3.1482,3.1479,3.1492,3.149,3.1497,3.1482,3.1488,3.1481,3.1483,3.1469,3.1471,3.1419,3.1414,3.1462,3.1462,3.1461,0,3.1421,3.1414,3.1427,3.1426,3.1431,3.1428,3.1429,3.1445,3.1444,3.1451,3.1445,3.1444,3.1444,3.1438,3.1448,3.1447,3.1454,3.1436,3.1454,3.1451,3.1455,3.1456,3.1456,3.1432,3.1431,3.1431,3.1431,0,3.1375,3.1383,3.1383,3.1386,3.1386,3.1389,3.1393,3.1391,3.1409,3.1407,3.1405,3.1406,3.1406,3.1405,3.1406,3.141,3.1423,3.1425,3.1422,3.1419,3.1416,3.1418,3.1472,3.1426,3.1427,3.1427,3.1427,3.1427,3.1339,3.1334,3.1343,3.1343,3.1348,3.1352,3.1348,3.1358,3.1357,3.1359,3.1369,3.1365,3.1372,3.1376,3.1378,3.1376,3.1384,3.1379,3.1379,3.1377,3.1376,3.1415,3.1376,3.1376,3.1376,3.1376,3.1376,0,3.1294,3.1302,3.1302,3.1308,3.1308,3.1321,3.1327,3.1326,3.1323,3.1328,3.1329,3.1327,3.1327,3.1337,3.1337,3.1333,3.1339,3.1333,3.1334,3.1335,3.1367,3.1371,3.1328,3.1328,3.1328,3.1328,3.1328,3.1328,3.1271,3.1264,3.1273,3.1269,3.1276,3.1274,3.1276,3.128,3.1284,3.1282,3.1283,3.1289,3.1297,3.1298,3.1298,3.1301,3.1301,3.1293,3.1297,3.1328,3.1332,3.1337,3.134,3.1292,3.1292,3.1266,3.1265,3.1265]}]]